ZHONGXING-6B

Last updated on May 23, 2019, 3:05 a.m. UTC

1 31800U 07031A   19142.89884588 -.00000369  00000-0  00000+0 0  9996
2 31800   0.0146 289.8282 0004377 137.5239 251.9494  1.00268046 43575
UTC
Height (km)
Latitude
Longitude
Inclination
Orbital Period
UTC large
Height (km)
Speed (km/s)
/
Latitude / Longitude
Inclination (degrees)
Orbital Period (minutes)
Azimuth
Elevation
Range (km)
Doppler Factor
iOS Compass Heading
iOS Angle

Next 30 passes for location: Hong Kong

Rise time Rise Azimuth (degrees) Set time Set Azimuth (degrees) Duration Max altitude (degrees)

No matching passes for this satellites